CZ-6A DEB

Satellite information

Favourite Embed

Satellite Type and Status

DEBRISIN ORBIT

Key statistics

Satellite CZ-6A DEB at a glance.

Uptime

969

Days in orbit

Revolutions

≈ 14.3

Per day

Orbit

SSO

Sun Synchronous Orbit

Inclination

98.8

Latest

Satellite identification and parameters

Extended collection of information and parameters for CZ-6A DEB.

Object identification

Identified? True

Debris? True

Object name: CZ-6A DEB

International designator: 2022-151ACD

Object number (NORAD): 56261

Object ID (CCSDS): 56261

Country: PEOPLES REPUBLIC OF CHINA (PRC)

Current information (Y/N): Y

RCS size: SMALL

Orbital parameters

Period: 100.825 minutes

Inclination: 98.8132 deg

SMA: 7175.818 km

Apoapsis: 826.237 km

Periapsis: 769.129 km

RAAN: 198.8418 deg

Eccentricy: 0.0039792

Argument of periapsis: 219.5793 deg

Mean anomaly: 140.2481 deg

Mean motion: 14.28221687 rev/day

Mean motion (dot): 0.00004346 rev/day2

B* drag term: 0.0017469 1/REarth

Two-line elements (TLE)

Creation date: July 6, 2025, 6:05 p.m.

Reference frame: TEME

Reference center: EARTH

Epoch: July 5, 2025, 11:39 p.m. UTC

TLE line 0: 0 CZ-6A DEB

TLE line 1: 1 56261U 22151ACD 25186.98585724 .00004346 00000-0 17469-2 0 9997

TLE line 2: 2 56261 98.8132 198.8418 0039792 219.5793 140.2481 14.28221687122475

Live tracking on map

Real-time ground track for satellite CZ-6A DEB.

In-orbit conjunctions

A list of the most updated potential collisions computed for object CZ-6A DEB.

Target Orbit TCA Probability of collision Miss distance Type
NOAA 16 DEB SSO 2024-11-07 18:13:44 0.0005234841 698.0 (m) DEBRIS
SL-16 R/B LEO 2024-09-27 09:47:19 0.0002148354 898.0 (m) ROCKET BODY

Associated space launch

Chinese satellite reported for atmospheric/ocean/environmental/spatial parameter research purposes, details TBD.

CZ-6A DEB was lifted into orbit during the mission ‘Long March 6A | Yunhai 3’, on board a Long March 6A space rocket.

The launch took place on Nov. 11, 2022, 10:52 p.m. from Launch Complex 9A.

For more information about the launch, click the button.

Launch to space Long March 6A | Yunhai 3
Long March 6A | Yunhai 3

Agency: N/A

Status: Launch Successful

Launch date: Nov. 11, 2022, 10:52 p.m. UTC

Rocket: Long March 6A

Launch pad: Launch Complex 9A

Location: Taiyuan Satellite Launch Center, People's Republic of China

...

Latest news about this satellite

There are no fresh news available about this satellite. Check back as we update our databases every day.


Newsletter sign-up

Weekly statistics, charts and insights to help you stay on top of the space industry.